Time,TemperatureF,DewpointF,PressureIn,WindDirection,WindDirectionDegrees,WindSpeedMPH,WindSpeedGustMPH,Humidity,HourlyPrecipIn,Conditions,Clouds,dailyrainin,SoftwareType,DateUTC
2013-03-28 00:14:00,27.5,23.0,30.30,ENE,68,0.0,0.0,84,0.00,,,0.00,weatherlink.com 1.10,2013-03-28 04:14:00,
2013-03-28 00:29:00,27.6,23.0,30.30,ENE,68,0.0,0.0,84,0.00,,,0.00,weatherlink.com 1.10,2013-03-28 04:29:00,
2013-03-28 00:44:00,27.7,24.0,30.30,ENE,68,0.0,0.0,84,0.00,,,0.00,weatherlink.com 1.10,2013-03-28 04:44:00,
2013-03-28 00:59:00,27.6,23.0,30.30,ENE,68,0.0,0.0,84,0.00,,,0.00,weatherlink.com 1.10,2013-03-28 04:59:00,
2013-03-28 01:14:00,27.6,23.0,30.30,ENE,65,0.0,0.0,83,0.00,,,0.00,weatherlink.com 1.10,2013-03-28 05:14:00,
2013-03-28 01:29:00,27.2,23.0,30.30,ENE,65,0.0,0.0,85,0.00,,,0.00,weatherlink.com 1.10,2013-03-28 05:29:00,
2013-03-28 01:44:00,27.0,23.0,30.30,ENE,65,0.0,1.0,85,0.00,,,0.00,weatherlink.com 1.10,2013-03-28 05:44:00,
2013-03-28 01:59:00,26.4,23.0,30.29,ENE,67,0.0,0.0,86,0.00,,,0.00,weatherlink.com 1.10,2013-03-28 05:59:00,
2013-03-28 02:14:00,26.1,23.0,30.29,ENE,66,0.0,0.0,86,0.00,,,0.00,weatherlink.com 1.10,2013-03-28 06:14:00,
2013-03-28 02:29:00,25.8,23.0,30.29,NE,48,0.0,1.0,87,0.00,,,0.00,weatherlink.com 1.10,2013-03-28 06:29:00,
2013-03-28 02:44:00,25.4,22.0,30.29,NE,49,0.0,0.0,88,0.00,,,0.00,weatherlink.com 1.10,2013-03-28 06:44:00,
2013-03-28 02:59:00,25.3,23.0,30.29,East,80,0.0,1.0,89,0.00,,,0.00,weatherlink.com 1.10,2013-03-28 06:59:00,
2013-03-28 03:14:00,25.1,22.0,30.29,East,80,0.0,0.0,88,0.00,,,0.00,weatherlink.com 1.10,2013-03-28 07:14:00,
2013-03-28 03:29:00,24.6,22.0,30.29,East,80,0.0,0.0,89,0.00,,,0.00,weatherlink.com 1.10,2013-03-28 07:29:00,
2013-03-28 03:44:00,24.7,22.0,30.29,East,79,0.0,1.0,90,0.00,,,0.00,weatherlink.com 1.10,2013-03-28 07:44:00,
2013-03-28 03:59:00,24.1,22.0,30.29,East,79,0.0,0.0,90,0.00,,,0.00,weatherlink.com 1.10,2013-03-28 07:59:00,
2013-03-28 04:14:00,23.7,21.0,30.29,East,79,0.0,0.0,90,0.00,,,0.00,weatherlink.com 1.10,2013-03-28 08:14:00,
2013-03-28 04:29:00,23.4,21.0,30.29,East,79,0.0,0.0,90,0.00,,,0.00,weatherlink.com 1.10,2013-03-28 08:29:00,
2013-03-28 04:44:00,23.2,21.0,30.29,East,79,0.0,0.0,92,0.00,,,0.00,weatherlink.com 1.10,2013-03-28 08:44:00,
2013-03-28 04:59:00,23.2,22.0,30.29,East,79,0.0,0.0,93,0.00,,,0.00,weatherlink.com 1.10,2013-03-28 08:59:00,
2013-03-28 05:14:00,23.3,21.0,30.29,East,79,0.0,0.0,92,0.00,,,0.00,weatherlink.com 1.10,2013-03-28 09:14:00,
2013-03-28 05:29:00,22.9,21.0,30.29,East,79,0.0,0.0,91,0.00,,,0.00,weatherlink.com 1.10,2013-03-28 09:29:00,
2013-03-28 05:44:00,22.8,21.0,30.29,East,79,0.0,0.0,91,0.00,,,0.00,weatherlink.com 1.10,2013-03-28 09:44:00,
2013-03-28 05:59:00,22.6,21.0,30.30,East,79,0.0,0.0,92,0.00,,,0.00,weatherlink.com 1.10,2013-03-28 09:59:00,
2013-03-28 06:14:00,22.5,21.0,30.31,East,81,0.0,1.0,93,0.00,,,0.00,weatherlink.com 1.10,2013-03-28 10:14:00,
2013-03-28 06:29:00,22.4,21.0,30.31,East,79,0.0,0.0,92,0.00,,,0.00,weatherlink.com 1.10,2013-03-28 10:29:00,
2013-03-28 06:44:00,22.2,20.0,30.31,East,80,0.0,0.0,92,0.00,,,0.00,weatherlink.com 1.10,2013-03-28 10:44:00,
2013-03-28 06:59:00,21.8,20.0,30.32,East,80,0.0,0.0,93,0.00,,,0.00,weatherlink.com 1.10,2013-03-28 10:59:00,
2013-03-28 07:15:00,21.9,21.0,30.32,East,80,0.0,0.0,94,0.00,,,0.00,weatherlink.com 1.10,2013-03-28 11:15:00,
2013-03-28 07:30:00,21.7,20.0,30.33,ENE,77,0.0,0.0,93,0.00,,,0.00,weatherlink.com 1.10,2013-03-28 11:30:00,
2013-03-28 07:45:00,21.6,20.0,30.33,ENE,77,0.0,0.0,93,0.00,,,0.00,weatherlink.com 1.10,2013-03-28 11:45:00,
2013-03-28 08:00:00,21.8,20.0,30.34,ENE,77,0.0,0.0,93,0.00,,,0.00,weatherlink.com 1.10,2013-03-28 12:00:00,
2013-03-28 08:15:00,22.5,21.0,30.34,ENE,77,0.0,0.0,94,0.00,,,0.00,weatherlink.com 1.10,2013-03-28 12:15:00,
2013-03-28 08:30:00,24.8,23.0,30.34,ENE,77,0.0,0.0,92,0.00,,,0.00,weatherlink.com 1.10,2013-03-28 12:30:00,
2013-03-28 08:45:00,29.0,26.0,30.34,ENE,77,0.0,1.0,88,0.00,,,0.00,weatherlink.com 1.10,2013-03-28 12:45:00,
2013-03-28 09:00:00,32.8,27.0,30.35,East,83,1.0,1.0,80,0.00,,,0.00,weatherlink.com 1.10,2013-03-28 13:00:00,
2013-03-28 09:15:00,35.5,28.0,30.35,SSE,150,0.0,1.0,75,0.00,,,0.00,weatherlink.com 1.10,2013-03-28 13:15:00,
2013-03-28 09:30:00,36.6,28.0,30.35,SE,127,0.0,1.0,72,0.00,,,0.00,weatherlink.com 1.10,2013-03-28 13:30:00,
2013-03-28 09:45:00,36.3,26.0,30.35,WNW,298,0.0,2.0,66,0.00,,,0.00,weatherlink.com 1.10,2013-03-28 13:45:00,
2013-03-28 10:00:00,39.6,26.0,30.35,East,82,0.0,2.0,58,0.00,,,0.00,weatherlink.com 1.10,2013-03-28 14:00:00,
2013-03-28 10:15:00,41.1,26.0,30.34,ENE,65,0.0,2.0,55,0.00,,,0.00,weatherlink.com 1.10,2013-03-28 14:15:00,
2013-03-28 10:30:00,41.1,23.0,30.34,ESE,109,1.0,3.0,49,0.00,,,0.00,weatherlink.com 1.10,2013-03-28 14:30:00,
2013-03-28 10:45:00,42.1,25.0,30.34,West,271,3.0,3.0,50,0.00,,,0.00,weatherlink.com 1.10,2013-03-28 14:45:00,
2013-03-28 11:00:00,43.4,23.0,30.34,SSE,148,0.0,4.0,44,0.00,,,0.00,weatherlink.com 1.10,2013-03-28 15:00:00,
2013-03-28 11:15:00,43.6,23.0,30.34,WNW,287,1.0,3.0,44,0.00,,,0.00,weatherlink.com 1.10,2013-03-28 15:15:00,
2013-03-28 11:30:00,44.8,21.0,30.33,WNW,293,0.0,4.0,39,0.00,,,0.00,weatherlink.com 1.10,2013-03-28 15:30:00,
2013-03-28 11:45:00,46.7,23.0,30.33,SSE,152,0.0,5.0,39,0.00,,,0.00,weatherlink.com 1.10,2013-03-28 15:45:00,
2013-03-28 12:00:00,47.8,21.0,30.33,South,190,1.0,5.0,35,0.00,,,0.00,weatherlink.com 1.10,2013-03-28 16:00:00,
2013-03-28 12:15:00,47.5,22.0,30.32,East,101,1.0,5.0,36,0.00,,,0.00,weatherlink.com 1.10,2013-03-28 16:15:00,
2013-03-28 12:30:00,49.5,20.0,30.31,East,96,0.0,4.0,31,0.00,,,0.00,weatherlink.com 1.10,2013-03-28 16:30:00,
2013-03-28 12:45:00,50.5,22.0,30.31,WNW,293,7.0,7.0,33,0.00,,,0.00,weatherlink.com 1.10,2013-03-28 16:45:00,
2013-03-28 13:00:00,50.4,21.0,30.31,East,91,2.0,7.0,32,0.00,,,0.00,weatherlink.com 1.10,2013-03-28 17:00:00,
2013-03-28 13:15:00,51.1,20.0,30.31,SSE,151,1.0,8.0,29,0.00,,,0.00,weatherlink.com 1.10,2013-03-28 17:15:00,
2013-03-28 13:30:00,51.2,18.0,30.30,South,169,2.0,9.0,27,0.00,,,0.00,weatherlink.com 1.10,2013-03-28 17:30:00,
2013-03-28 13:46:00,53.0,20.0,30.29,WNW,298,1.0,8.0,28,0.00,,,0.00,weatherlink.com 1.10,2013-03-28 17:46:00,
2013-03-28 14:01:00,54.3,21.0,30.29,ESE,120,3.0,5.0,27,0.00,,,0.00,weatherlink.com 1.10,2013-03-28 18:01:00,
2013-03-28 15:31:00,56.9,16.0,30.25,WNW,293,3.0,5.0,20,0.00,,,0.00,weatherlink.com 1.10,2013-03-28 19:31:00,
2013-03-28 15:46:00,56.8,9.0,30.25,NNE,33,2.0,14.0,15,0.00,,,0.00,weatherlink.com 1.10,2013-03-28 19:46:00,
2013-03-28 16:30:00,57.4,13.0,30.24,WSW,238,1.0,8.0,17,0.00,,,0.00,weatherlink.com 1.10,2013-03-28 20:30:00,
2013-03-28 16:46:00,57.9,14.0,30.24,NE,51,1.0,6.0,18,0.00,,,0.00,weatherlink.com 1.10,2013-03-28 20:46:00,
2013-03-28 17:01:00,57.3,15.0,30.23,NNE,31,3.0,7.0,19,0.00,,,0.00,weatherlink.com 1.10,2013-03-28 21:01:00,
2013-03-28 17:31:00,55.5,14.0,30.24,NNE,29,2.0,7.0,19,0.00,,,0.00,weatherlink.com 1.10,2013-03-28 21:31:00,
2013-03-28 17:46:00,54.4,14.0,30.25,NE,39,1.0,8.0,20,0.00,,,0.00,weatherlink.com 1.10,2013-03-28 21:46:00,
2013-03-28 18:01:00,53.8,15.0,30.25,ENE,60,1.0,6.0,21,0.00,,,0.00,weatherlink.com 1.10,2013-03-28 22:01:00,
2013-03-28 18:16:00,53.3,18.0,30.25,East,79,2.0,6.0,25,0.00,,,0.00,weatherlink.com 1.10,2013-03-28 22:16:00,
2013-03-28 18:31:00,52.4,15.0,30.26,NW,305,1.0,4.0,23,0.00,,,0.00,weatherlink.com 1.10,2013-03-28 22:31:00,
2013-03-28 18:46:00,51.6,17.0,30.27,NNE,31,1.0,4.0,25,0.00,,,0.00,weatherlink.com 1.10,2013-03-28 22:46:00,
2013-03-28 19:01:00,50.4,17.0,30.27,ENE,60,1.0,4.0,26,0.00,,,0.00,weatherlink.com 1.10,2013-03-28 23:01:00,
2013-03-28 19:16:00,49.6,17.0,30.28,NNE,16,0.0,5.0,27,0.00,,,0.00,weatherlink.com 1.10,2013-03-28 23:16:00,
2013-03-28 19:46:00,47.1,16.0,30.29,WSW,254,0.0,1.0,29,0.00,,,0.00,weatherlink.com 1.10,2013-03-28 23:46:00,
2013-03-28 20:46:00,41.7,19.0,30.32,WSW,250,0.0,1.0,40,0.00,,,0.00,weatherlink.com 1.10,2013-03-29 00:46:00,
2013-03-28 21:01:00,40.2,19.0,30.32,WSW,250,0.0,0.0,42,0.00,,,0.00,weatherlink.com 1.10,2013-03-29 01:01:00,
2013-03-28 21:16:00,39.1,21.0,30.33,WSW,250,0.0,0.0,49,0.00,,,0.00,weatherlink.com 1.10,2013-03-29 01:16:00,
2013-03-28 21:31:00,38.0,20.0,30.33,WSW,250,0.0,0.0,48,0.00,,,0.00,weatherlink.com 1.10,2013-03-29 01:31:00,
2013-03-28 23:01:00,33.0,22.0,30.36,NW,324,0.0,1.0,64,0.00,,,0.00,weatherlink.com 1.10,2013-03-29 03:01:00,
2013-03-28 23:16:00,32.5,23.0,30.36,NW,325,0.0,0.0,67,0.00,,,0.00,weatherlink.com 1.10,2013-03-29 03:16:00,
2013-03-28 23:31:00,31.5,23.0,30.36,West,281,0.0,1.0,71,0.00,,,0.00,weatherlink.com 1.10,2013-03-29 03:31:00,